Вернуться в каталог

DELTA 1 DEB

АктивенLEO
NORAD 29186·DEBRIS·🇺🇸 United States

Запущен Jan 11, 1968 с Vandenberg Space Force Base

Loading…

Ближайшие Пролёты (ближайшие 24 часа)

TLE

УстаревающийSource: Space-Track

Эпоха: Sep 10, 2026, 10:52 UTC

1 29186U 68002K   26253.45304721  .00000019  00000-0  28549-3 0  9997
2 29186 105.8024 112.9351 0310209  18.4632 101.0709 12.93094335 15169

Отслеживайте DELTA 1 DEB в реальном времени с AllMySat

Download on the App Store